Weather History for Gillette, WY

Change the Weather History Date:

Friday, January 25, 2013

  Actual Average Record
Temperature  
Mean Temperature 35 °F 26 °F  
Max Temperature 51 °F 37 °F 55 °F (2014)
Min Temperature 19 °F 15 °F 31 °F (2014)
Degree Days  
Heating Degree Days 30 39  
Month to date heating degree days 991 980  
Since 1 July heating degree days 3831 4121  
Cooling Degree Days 0 0  
Month to date cooling degree days 0 0  
Year to date cooling degree days 0 0  
Moisture  
Dew Point 22 °F    
Average Humidity 60    
Maximum Humidity 92    
Minimum Humidity 27    
Precipitation  
Precipitation 0.00 in 0.02 in 0.00 in (2014)
Month to date precipitation 0.15 0.29  
Year to date precipitation 0.15 0.29  
Sea Level Pressure  
Sea Level Pressure 30.09 in    
Wind  
Wind Speed 6 mph (SSE)    
Max Wind Speed 15 mph    
Max Gust Speed 18 mph    
Visibility 10 miles    
Events      
T = Trace of Precipitation, MM = Missing Value Source: NWS Daily Summary

Daily Weather History Graph

Daily Weather History Graph

Search for Another Location

Airport:

Trip Planner

Search our weather history database for the weather conditions in past years. The results will help you decide how hot, cold, wet, or windy it might be!

Date:

Astronomy

Jan. 25, 2013 Rise Set
Actual Time 7:27 AM MST 5:02 PM MST
Civil Twilight 6:55 AM MST 5:33 PM MST
Nautical Twilight 6:20 AM MST 6:09 PM MST
Astronomical Twilight 5:46 AM MST 6:43 PM MST
Moon 4:02 PM MST (1/25) 6:08 AM MST (1/25)
Length of Visible Light 10h 38m
Length of Day
9h 35m
Waxing Gibbous, 98% of the Moon is Illuminated
Jan 25
Waxing Gibbous
Jan 26
Full
Feb 3
Last Quarter
Feb 10
New
Feb 17
First Quarter

Hourly Weather History & Observations

Time (MST) Temp. Windchill Dew Point Humidity Pressure Visibility Wind Dir Wind Speed Gust Speed Precip Events Conditions
12:53 AM 21.9 °F 13.4 °F 19.0 °F 89% 30.14 in 10.0 mi South 6.9 mph - N/A   Clear
1:53 AM 24.1 °F 15.2 °F 19.9 °F 84% 30.11 in 10.0 mi South 8.1 mph - N/A   Clear
2:53 AM 25.0 °F 16.3 °F 19.9 °F 81% 30.12 in 10.0 mi South 8.1 mph - N/A   Clear
3:53 AM 28.0 °F 18.1 °F 21.0 °F 75% 30.09 in 10.0 mi South 11.5 mph - N/A   Clear
4:53 AM 26.1 °F 15.6 °F 19.9 °F 78% 30.10 in 10.0 mi South 11.5 mph - N/A   Clear
5:53 AM 30.0 °F - 21.0 °F 69% 30.12 in 10.0 mi Calm Calm - N/A   Clear
6:53 AM 25.0 °F 19.3 °F 19.0 °F 78% 30.15 in 10.0 mi SSE 4.6 mph - N/A   Clear
7:53 AM 19.9 °F - 16.0 °F 85% 30.18 in 10.0 mi Calm Calm - N/A   Clear
8:53 AM 25.0 °F 20.7 °F 21.0 °F 85% 30.17 in 10.0 mi NW 3.5 mph - N/A   Clear
9:53 AM 30.9 °F - 24.1 °F 76% 30.18 in 10.0 mi Calm Calm - N/A   Clear
10:53 AM 41.0 °F 39.0 °F 28.9 °F 62% 30.15 in 10.0 mi NNE 3.5 mph - N/A   Clear
11:53 AM 46.9 °F - 25.0 °F 42% 30.11 in 10.0 mi Calm Calm - N/A   Clear
12:53 PM 48.0 °F - 19.0 °F 32% 30.09 in 10.0 mi South 5.8 mph - N/A   Clear
1:53 PM 50.0 °F - 17.1 °F 27% 30.05 in 10.0 mi SE 3.5 mph - N/A   Clear
2:53 PM 48.9 °F - 25.0 °F 39% 30.06 in 10.0 mi East 5.8 mph - N/A   Clear
3:53 PM 46.9 °F - 28.0 °F 48% 30.05 in 10.0 mi ENE 4.6 mph - N/A   Clear
4:53 PM 30.9 °F 27.5 °F 23.0 °F 72% 30.09 in 10.0 mi SW 3.5 mph - N/A   Clear
5:53 PM 32.0 °F 25.6 °F 25.0 °F 75% 30.08 in 10.0 mi South 6.9 mph - N/A   Clear
6:53 PM 37.0 °F 30.4 °F 28.0 °F 70% 30.07 in 10.0 mi South 9.2 mph - N/A   Clear
7:53 PM 33.1 °F 24.4 °F 24.1 °F 70% 30.08 in 10.0 mi South 11.5 mph - N/A   Clear
8:53 PM 32.0 °F 23.6 °F 24.1 °F 73% 30.06 in 10.0 mi SSE 10.4 mph - N/A   Clear
9:53 PM 32.0 °F 27.5 °F 23.0 °F 69% 30.03 in 10.0 mi SSE 4.6 mph - N/A   Clear
10:53 PM 30.0 °F - 21.9 °F 72% 29.98 in 10.0 mi Calm Calm - N/A   Partly Cloudy
11:53 PM 30.0 °F 21.1 °F 23.0 °F 75% 29.95 in 10.0 mi SSE 10.4 mph - N/A   Clear